Regional Weather Roundup
Issued by NWS

Home | Current Version | Previous Version | Graphics & Text | Print | Product List | Glossary On
Versions: 1 2 3 4 5 6 7 8 9 10 11 12 13 14 15 16 17 18 19 20 21 22 23 24 25 26 27 28 29 30 31 32 33 34 35 36 37 38 39 40 41 42 43 44 45 46 47 48 49 50
000
ASUS43 KLSX 210157
RWRMO

WEATHER SUMMARY FOR MISSOURI
NATIONAL WEATHER SERVICE SPRINGFIELD MO
800 PM CST TUE FEB 20 2018

NOTE: "FAIR" INDICATES FEW OR NO CLOUDS BELOW 12,000 FEET WITH NO
       SIGNIFICANT WEATHER AND/OR OBSTRUCTIONS TO VISIBILITY.
       CURRENT SKY AND/OR WEATHER CONDITIONS ARE NOT AVAILABLE FOR
       CHILLICOTHE AND FARMINGTON.

MOZ001>031-035>038-043-044-053-054-210300-
...NORTHERN AND WESTERN MISSOURI...

CITY           SKY/WX    TMP DP  RH WIND       PRES   REMARKS
KANSAS CTY INT CLOUDY    21  16  81 N15       30.26S WCI   8
LEE`S SUMMIT   MOCLDY    22  18  85 N18       30.25R WCI   7
ST JOSEPH      CLOUDY    20  15  81 N12       30.31R WCI   8
CHILLICOTHE      N/A     23  17  78 NW8       30.28R WCI  14
KIRKSVILLE     MOCLDY    25  21  86 NW16G22   30.21S WCI  12

$$
MOZ066>068-077>081-088>096-101>105-210300-
...SOUTHWEST MISSOURI...

CITY           SKY/WX    TMP DP  RH WIND       PRES   REMARKS
SPRINGFIELD    RAIN      34  33  96 N12       30.13R WCI  25
JOPLIN         FRZ RAIN  29  29 100 NE14G21   30.16F WCI  18
BRANSON        RAIN      37  37 100 NW12      30.09R FOG     WCI  30

$$
MOZ032>034-039>042-045>050-055>058-069>072-210300-
...CENTRAL MISSOURI...

CITY           SKY/WX    TMP DP  RH WIND       PRES   REMARKS
COLUMBIA       NOT AVBL
JEFFERSON CITY RAIN      33  31  92 NW8       30.19R FOG     WCI  26
ROLLA          MIX PCPN  34  33  96 NW18G24   30.09F WCI  23
SEDALIA        FRZ RAIN  29  26  89 N16       30.23R WCI  17
WARRENSBURG    MOCLDY    27  23  86 N8        30.22F WCI  18

$$
MOZ051-052-059>065-210300-
...EAST CENTRAL MISSOURI...

CITY           SKY/WX    TMP DP  RH WIND       PRES   REMARKS
ST LOUIS INTL  LGT RAIN  39  39 100 NW14      30.08F FOG

$$
MOZ072>076-082>087-097>100-106>115-210300-
...SOUTH CENTRAL AND SOUTHEAST MISSOURI...

CITY           SKY/WX    TMP DP  RH WIND       PRES   REMARKS
CAPE GIRARDEAU MOCLDY    70  60  70 S18G29    30.00F
FARMINGTON     HVY RAIN  48  46  93 NW9       30.07R FOG
POPLAR BLUFF   CLOUDY    70  63  78 S15       29.98F
WEST PLAINS    HVY RAIN  46  44  93 NW13G22   30.07R FOG

$$


USA.gov is the U.S. government's official web portal to all federal, state and local government web resources and services.